Regional Weather Roundup
Issued by NWS

Home | Current Version | Previous Version | Graphics & Text | Print | Product List | Glossary On
Versions: 1 2 3 4 5 6 7 8 9 10 11 12 13 14 15 16 17 18 19 20 21 22 23 24 25 26 27 28 29 30 31 32 33 34 35 36 37 38 39 40 41 42 43 44 45 46 47 48 49 50
301
ASUS43 KLOT 190903
RWRIL

ILLINOIS REGIONAL WEATHER ROUNDUP
NATIONAL WEATHER SERVICE CHICAGO/ROMEOVILLE IL
300 AM CST MON FEB 19 2018

NOTE: "FAIR" INDICATES FEW OR NO CLOUDS BELOW 12,000 FEET WITH NO
SIGNIFICANT WEATHER AND/OR OBSTRUCTIONS TO VISIBILITY.

* THESE STATIONS ARE NOT UNDER NWS QUALITY CONTROL. THEY ALSO MAY NOT
  REPORT WEATHER SUCH AS PRECIPITATION OR FOG.

ILZ001-002-007-009-015-016-024-191000-
NORTHWEST ILLINOIS

CITY           SKY/WX    TMP DP  RH WIND       PRES   REMARKS
MOLINE         FAIR      42  36  79 S7        29.79R
STERLING*      MOCLDY    38  35  89 VRB5      29.82F WCI  34
SAVANNA*       CLOUDY    37  33  86 S7        29.80F WCI  31
$$

ILZ003-004-008-010-011-017-018-191000-
NORTH CENTRAL ILLINOIS

CITY           SKY/WX    TMP DP  RH WIND       PRES   REMARKS
ROCKFORD       CLOUDY    37  32  82 S9        29.84S WCI  30
FREEPORT*      CLOUDY    37  33  87 S10       29.82S WCI  29
ROCHELLE*      CLOUDY    35  33  94 S9        29.84F WCI  27
DE KALB*       CLOUDY    35  34  95 S10       29.85S WCI  27
PERU*          CLOUDY    37  35  93 S10       29.85S WCI  30
$$

ILZ005-006-012>014-019>023-191000-
NORTHEAST ILLINOIS

CITY           SKY/WX    TMP DP  RH WIND       PRES   REMARKS
CHICAGO-OHARE  CLOUDY    40  34  79 S12       29.85F
CHICAGO-MIDWAY CLOUDY    39  35  86 S8        29.87F WCI  33
AURORA         CLOUDY    36  35  96 S8        29.85F WCI  30
LANSING*       CLOUDY    37  36  96 S9        29.88F WCI  30
JOLIET*        CLOUDY    39  39 100 S7        29.87F FOG     WCI  34
WAUKEGAN       CLOUDY    40  34  79 SW13      29.83F
DUPAGE AIRPORT CLOUDY    37  35  92 S10       29.84F WCI  30
KANKAKEE*      CLOUDY    38  37  98 S3        29.89F
WHEELING       CLOUDY    41  35  79 S12       29.86F
MORRIS*        CLOUDY    36  35  97 S6        29.86S FOG     WCI  31
ROMEOVILLE*    CLOUDY    36  35  96 S6        29.87S FOG     WCI  31
NORTHERLY ISL    N/A     40  34  79 S10         N/A
$$

LMZ740>746-191000-
SOUTHERN LAKE MICHIGAN

STATION/POSITION SKY/WX   TEMP    WIND        PRES    VSBY  WAVE
                          AIR SEA DIR/SP/G                  HT/PER
                          (F)     (DEG/KT/KT) (MB)    (MI)  (FT/S)
HARRISON CRIB              40     190/ 19/ 21   N/A
BURNHAM HARBOR             40     190/ 10/ 13   N/A
CALUMET HARBOR             39     170/  8/ 11 1011.2F
BURNS HARBOR               41     170/ 16/ 22 1012.5S
MICHIGAN CITY              40     150/ 15/ 17   N/A
$$

ILZ025>027-034>036-040-047-049-050-058-095>099-191000-
WEST-CENTRAL ILLINOIS

CITY           SKY/WX    TMP DP  RH WIND       PRES   REMARKS
QUINCY         LGT RAIN  46  43  89 SE7       29.79F FOG
GALESBURG*     FAIR      41  38  89 SE7       29.81F
MACOMB*        CLOUDY    42  39  91 S9        29.83F
JACKSONVILLE*  CLOUDY    49  44  81 S9        29.83F
PITTSFIELD*    CLOUDY    50  46  85 S8        29.83S
$$

ILZ028>032-037-038-041>044-048-051>054-059>061-191000-
CENTRAL ILLINOIS

CITY           SKY/WX    TMP DP  RH WIND       PRES   REMARKS
BLOOMINGTON    CLOUDY    46  42  86 SW16      29.86S
DECATUR        RAIN      49  46  90 S17       29.89S
PEORIA         CLOUDY    43  39  86 S5        29.85F
LACON*         CLOUDY    42  39  90 S6        29.84F
LINCOLN*       CLOUDY    48  46  93 S7        29.86S
SPRINGFIELD    CLOUDY    51  47  86 S18G25    29.86F
TAYLORVILLE    CLOUDY    47  44  88 S9        29.88S
$$

ILZ033-039-045-046-055>057-062-063-191000-
EAST-CENTRAL ILLINOIS

CITY           SKY/WX    TMP DP  RH WIND       PRES   REMARKS
CHAMPAIGN      CLOUDY    45  42  89 S20       29.89S
DANVILLE*      CLOUDY    45  41  86 S15       29.88S
RANTOUL*       CLOUDY    48  44  85 SW17G23   29.89R
MATTOON        TSTM      48  42  80 S15G24    29.90F
PARIS*         TSTM      49  44  83 S18G26    29.93R
$$

ILZ079-100>102-191000-
SOUTHWEST ILLINOIS

CITY           SKY/WX    TMP DP  RH WIND       PRES   REMARKS
ALTON          CLOUDY    52  50  93 S13       29.88F
BELLEVILLE     CLOUDY    54  49  86 SW14      29.89F
CAHOKIA*       CLOUDY    55  50  83 S14G23    29.89S
SPARTA*        CLOUDY    52  52 100 S13G21    29.94F
$$

ILZ064>066-069>071-074>076-080>082-084>086-088>090-092>094-191000-
SOUTH-CENTRAL ILLINOIS

CITY           SKY/WX    TMP DP  RH WIND       PRES   REMARKS
CARBONDALE     CLOUDY    55  54  96 S17G32    29.97F
CAIRO*         CLOUDY    55  54  97 S13       30.04S
EFFINGHAM*     CLOUDY    51  46  82 SE12G17   29.94F
MARION         CLOUDY    54  54  98 S21G26    29.99F
MT. VERNON     CLOUDY    54  52  93 S17       29.95F
CENTRALIA*     CLOUDY    55  52  92 S16G24    29.93F
SALEM*         CLOUDY    55  50  85 S15G23    29.93F
METROPOLIS*    RAIN      56  55  94 S8        30.05S
$$

ILZ067-068-072-073-078-083-087-091-191000-
SOUTHEAST ILLINOIS

CITY           SKY/WX    TMP DP  RH WIND       PRES   REMARKS
LAWRENCEVILLE  CLOUDY    51  44  77 S17       29.98F
FLORA*         CLOUDY    52  47  84 S15       29.96F
FAIRFIELD*     CLOUDY    52  51  96 S9        29.97F
HARRISBURG*    CLOUDY    56  54  93 SW12G17   30.01S
ROBINSON*      CLOUDY    50  43  77 S17       29.96F
CARMI*         CLOUDY    53  50  90 S13       30.00F
$$

ABBREVIATIONS USED IN REMARKS
   TC - TEMPERATURE IN CELSIUS
  WCI - WIND CHILL INDEX
   HX - HEAT INDEX
  VSB - VISIBILITY
$$





USA.gov is the U.S. government's official web portal to all federal, state and local government web resources and services.